カタログに戻る

ATLAS 5 CENTAUR DEB

運用中HEO
NORAD 44040·DEBRIS·🇺🇸 United States

打ち上げ Sep 17, 2014 から Cape Canaveral Space Force Station

Loading…

次のパス (今後24時間)

TLE

経年Source: Space-Track

元期: Sep 4, 2026, 20:02 UTC

1 44040U 14055CA  26247.83525791 -.00000147  00000-0  00000-0 0  9991
2 44040  20.4641 127.7447 4738559 194.8841 144.0281  1.88071461 53351

AllMySatでATLAS 5 CENTAUR DEBをリアルタイム追跡

Download on the App Store